Temp
-7 -7 -7 -7 -6 -6 -6 -6 -6 -6 -6 -6 -5 -5 -5 -5 -5 -5 -5 -5 -5 -5 -5 -5 -5 -5 -5 -5 -5 -5 -6 -6 -6
-7 -7 -7 -7 -7 -6 -6 -6 -6 -6 -6 -6 -5 -5 -5 -5 -5 -5 -5 -5 -5 -5 -5 -5 -5 -5 -5 -5 -5 -5 -5 -6 -6
-8 -8 -7 -7 -7 -6 -6 -6 -6 -6 -6 -6 -6 -5 -5 -5 -5 -5 -5 -5 -5 -5 -5 -5 -5 -5 -5 -5 -5 -5 -5 -6 -6
-9 -9 -8 -7 -7 -7 -7 -7 -6 -6 -6 -6 -6 -6 -6 -6 -6 -6 -6 -5 -5 -5 -5 -5 -5 -5 -5 -5 -5 -5 -5 -5 -6
-10 -9 -9 -9 -8 -7 -7 -7 -7 -7 -7 -7 -6 -6 -6 -6 -6 -6 -6 -6 -6 -5 -5 -5 -5 -5 -5 -5 -5 -5 -5 -5 -5
-9 -9 -9 -9 -8 -8 -8 -8 -8 -7 -7 -7 -7 -7 -7 -7 -7 -7 -6 -6 -6 -6 -6 -6 -6 -5 -5 -5 -5 -5 -5 -5 -6
-9 -9 -9 -9 -9 -9 -8 -8 -8 -8 -8 -7 -7 -7 -7 -7 -7 -7 -7 -7 -7 -6 -6 -6 -6 -6 -6 -5 -5 -5 -6 -5 -6
-9 -9 -9 -9 -9 -9 -9 -9 -9 -8 -8 -8 -8 -8 -8 -8 -7 -7 -7 -7 -7 -7 -7 -6 -6 -6 -6 -6 -6 -6 -6 -6 -6
-10 -9 -9 -9 -9 -9 -9 -9 -9 -8 -8 -8 -8 -8 -8 -8 -8 -8 -8 -8 -8 -8 -7 -7 -7 -7 -7 -6 -6 -6 -6 -6 -6
-10 -10 -9 -9 -9 -9 -9 -9 -9 -9 -9 -8 -8 -8 -8 -8 -8 -8 -8 -8 -8 -8 -8 -7 -7 -7 -7 -7 -7 -6 -6 -6 -7
-11 -9 -10 -10 -9 -10 -9 -9 -9 -9 -9 -9 -8 -9 -9 -9 -9 -9 -9 -9 -9 -9 -8 -8 -8 -7 -7 -7 -7 -7 -7 -7 -7
-11 -11 -10 -10 -10 -10 -9 -9 -9 -9 -9 -9 -9 -9 -9 -9 -9 -9 -9 -9 -9 -9 -9 -9 -8 -8 -8 -8 -8 -8 -8 -7 -7
-11 -11 -11 -11 -10 -10 -10 -10 -10 -10 -10 -9 -9 -9 -9 -10 -10 -10 -10 -10 -10 -9 -9 -9 -9 -9 -8 -8 -8 -9 -9 -8 -8
-12 -11 -11 -11 -11 -11 -11 -10 -11 -10 -10 -10 -10 -10 -10 -10 -10 -10 -10 -10 -10 -10 -10 -10 -10 -10 -9 -9 -9 -9 -9 -9 -9
-12 -12 -12 -11 -11 -11 -11 -11 -11 -12 -11 -10 -11 -10 -10 -10 -10 -10 -11 -11 -10 -10 -10 -10 -10 -10 -10 -10 -9 -10 -10 -10 -10
-14 -12 -12 -12 -12 -12 -12 -11 -12 -12 -12 -12 -11 -10 -10 -10 -11 -11 -11 -11 -11 -11 -11 -11 -11 -11 -10 -10 -10 -10 -10 -10 -10
-13 -14 -13 -12 -12 -12 -13 -12 -12 -12 -12 -11 -12 -11 -11 -11 -11 -11 -11 -11 -11 -11 -11 -11 -11 -11 -11 -11 -10 -10 -10 -11 -10
-14 -14 -14 -13 -13 -13 -13 -13 -12 -12 -12 -12 -12 -11 -11 -11 -11 -11 -11 -11 -12 -11 -12 -11 -11 -12 -11 -11 -11 -10 -10 -10 -11
-14 -14 -14 -14 -14 -14 -14 -13 -13 -13 -13 -12 -12 -12 -11 -11 -11 -11 -11 -12 -12 -12 -12 -12 -12 -12 -12 -12 -11 -11 -11 -10 -10
-15 -15 -14 -14 -14 -14 -15 -14 -13 -13 -14 -13 -13 -12 -12 -11 -11 -11 -11 -11 -11 -11 -12 -12 -11 -11 -11 -12 -11 -12 -11 -11 -11
Height
5849 5851 5854 5856 5858 5860 5862 5863 5863 5865 5866 5868 5868 5869 5871 5872 5873 5874 5875 5875 5874 5873 5872 5870 5868 5866 5864 5862 5861 5859 5858 5857 5856
5845 5848 5851 5854 5856 5857 5859 5861 5862 5864 5865 5867 5869 5870 5870 5871 5873 5874 5875 5875 5875 5874 5873 5872 5870 5869 5867 5864 5863 5861 5859 5858 5857
5841 5844 5847 5850 5853 5855 5857 5858 5860 5862 5864 5865 5867 5869 5870 5871 5872 5873 5874 5875 5875 5874 5874 5873 5871 5870 5869 5867 5864 5862 5861 5859 5857
5836 5840 5843 5846 5849 5852 5854 5856 5857 5859 5861 5863 5865 5867 5869 5870 5871 5872 5873 5874 5874 5874 5874 5873 5872 5871 5869 5868 5866 5864 5862 5860 5858
5833 5836 5840 5842 5845 5847 5850 5852 5854 5856 5858 5860 5862 5864 5866 5868 5869 5870 5871 5872 5873 5874 5874 5873 5872 5871 5870 5869 5867 5865 5863 5861 5859
5828 5831 5835 5837 5840 5843 5845 5848 5851 5853 5855 5857 5859 5861 5863 5865 5868 5869 5869 5870 5871 5872 5872 5872 5872 5871 5870 5869 5868 5867 5864 5862 5861
5822 5826 5829 5833 5836 5838 5841 5844 5846 5849 5852 5854 5856 5858 5860 5862 5864 5866 5868 5868 5869 5870 5871 5871 5870 5870 5869 5868 5867 5867 5865 5863 5861
5815 5819 5823 5826 5829 5835 5835 5837 5841 5844 5847 5849 5851 5854 5856 5859 5861 5862 5864 5866 5867 5867 5868 5868 5868 5868 5868 5867 5866 5866 5865 5864 5861
5808 5812 5816 5819 5823 5826 5831 5832 5836 5838 5841 5843 5846 5849 5852 5854 5857 5859 5860 5862 5864 5864 5865 5865 5866 5866 5865 5865 5864 5864 5863 5863 5862
5799 5803 5807 5811 5816 5818 5825 5828 5830 5833 5835 5838 5841 5844 5847 5850 5852 5854 5856 5857 5859 5860 5862 5862 5863 5863 5862 5862 5862 5861 5861 5861 5860
5787 5791 5797 5804 5808 5812 5816 5821 5824 5827 5828 5833 5835 5837 5840 5844 5847 5848 5850 5852 5854 5855 5857 5859 5859 5859 5859 5859 5859 5858 5858 5858 5857
5778 5782 5788 5795 5799 5804 5807 5810 5815 5820 5822 5825 5828 5830 5833 5835 5838 5842 5844 5846 5848 5850 5852 5853 5855 5855 5855 5855 5855 5854 5854 5854 5854
5769 5774 5778 5784 5789 5796 5798 5802 5807 5812 5814 5817 5821 5823 5826 5828 5831 5834 5836 5839 5841 5844 5846 5848 5851 5852 5851 5850 5850 5851 5850 5850 5850
5761 5764 5768 5772 5779 5785 5790 5794 5799 5802 5805 5807 5811 5815 5817 5820 5823 5826 5828 5831 5833 5836 5840 5841 5844 5846 5847 5846 5846 5846 5846 5846 5846
5750 5756 5760 5762 5768 5772 5777 5782 5785 5791 5795 5799 5802 5806 5808 5812 5814 5817 5821 5823 5826 5828 5831 5834 5836 5838 5840 5841 5841 5841 5841 5841 5841
5741 5747 5749 5754 5757 5762 5767 5771 5776 5780 5783 5789 5792 5795 5800 5803 5806 5808 5812 5816 5818 5821 5823 5825 5827 5830 5832 5833 5834 5834 5835 5835 5836
5731 5737 5743 5744 5747 5751 5757 5761 5766 5770 5774 5777 5781 5786 5791 5794 5798 5801 5804 5807 5809 5812 5815 5816 5818 5820 5824 5825 5826 5828 5827 5828 5829
5722 5727 5730 5735 5734 5738 5744 5753 5756 5760 5763 5767 5770 5774 5779 5783 5787 5791 5794 5797 5800 5802 5805 5807 5809 5811 5815 5816 5818 5820 5820 5821 5822
5712 5717 5721 5726 5727 5727 5729 5740 5746 5747 5751 5754 5758 5762 5767 5771 5776 5779 5783 5787 5789 5791 5794 5796 5800 5801 5804 5807 5808 5810 5813 5813 5814
5698 5705 5709 5713 5718 5720 5721 5725 5732 5738 5742 5746 5747 5750 5753 5758 5763 5768 5772 5775 5778 5781 5783 5785 5788 5791 5794 5796 5798 5800 5803 5805 5806
Wind_Speed
26 22 20 19 16 15 13 11 10 10 10 10 10 10 9 6 3 2 3 6 9 12 14 18 19 19 20 22 23 24 25 25 24
29 27 25 23 20 17 17 15 13 12 11 11 11 11 10 8 5 3 1 2 6 9 12 13 16 18 19 19 22 23 24 25 24
32 31 29 26 25 22 20 18 17 15 13 13 13 14 13 10 7 5 3 2 2 7 9 11 12 15 18 19 18 20 22 23 24
32 32 32 30 28 26 24 22 20 19 18 17 16 16 15 13 10 7 7 5 3 5 7 8 10 11 15 17 19 17 19 21 23
32 29 30 31 30 30 27 26 24 22 21 20 20 21 19 16 13 11 10 8 5 5 6 7 8 10 13 15 17 17 17 19 22
35 35 32 31 33 32 30 28 26 24 22 22 22 22 21 19 16 13 12 10 8 7 7 8 8 9 11 13 16 16 16 17 20
40 38 38 35 34 32 31 30 28 26 25 25 25 24 23 21 18 15 15 13 11 11 9 9 9 9 11 12 14 15 16 16 18
39 40 39 40 39 36 36 34 31 29 27 27 28 27 25 24 21 18 18 17 16 14 12 11 12 12 11 12 14 15 16 16 16
44 44 42 40 39 40 40 38 34 32 30 30 30 28 28 27 24 21 21 22 20 18 15 14 14 15 14 13 15 16 17 17 16
49 47 46 47 44 41 41 39 36 35 33 32 30 30 30 29 28 27 26 26 23 22 19 17 17 17 17 15 14 16 17 18 17
52 53 49 49 46 45 45 43 41 39 38 36 35 35 35 34 33 32 30 29 28 26 23 22 20 20 20 19 17 17 19 19 17
57 56 58 55 49 49 49 50 47 45 43 42 40 39 39 38 37 36 35 33 31 30 27 26 24 24 23 24 22 20 21 22 22
41 53 55 56 59 53 51 53 51 49 48 46 45 44 43 42 42 40 38 37 35 33 32 30 29 27 28 28 26 26 24 25 24
45 40 51 48 49 49 51 52 51 54 54 53 51 50 49 48 46 44 43 41 38 36 35 33 32 31 30 30 31 30 29 26 27
36 44 47 46 51 52 55 56 61 58 57 55 55 52 54 52 50 48 45 44 42 39 38 36 35 34 33 33 35 34 33 31 29
60 44 48 46 38 42 50 59 61 59 60 57 50 53 51 51 51 49 48 47 45 43 41 39 37 36 34 35 38 36 35 34 32
54 52 60 57 52 45 38 44 48 59 59 57 63 59 55 56 57 53 51 50 48 46 45 42 41 39 37 36 37 38 36 36 33
60 61 58 66 71 70 60 44 46 36 44 53 60 59 58 59 59 55 53 53 52 49 48 45 45 44 43 41 38 40 39 38 35
62 62 60 57 66 72 74 53 47 49 38 41 41 51 60 65 59 58 57 57 53 48 50 49 47 46 44 46 43 43 41 41 38
63 62 61 58 56 61 65 72 64 43 34 39 46 50 55 64 65 60 56 54 54 52 52 49 43 46 46 48 48 47 44 42 41
Wind_Direction
228 223 218 209 206 205 213 212 206 204 201 196 181 165 154 149 139 92 50 12 13 12 15 12 13 15 16 11 12 16 20 29 31
226 227 223 216 211 209 212 217 218 215 208 202 199 184 177 181 189 182 153 0 0 6 11 11 12 10 9 9 7 9 14 21 29
226 227 225 218 216 217 214 218 221 223 221 213 204 196 197 206 206 211 214 249 324 357 2 7 9 3 3 360 6 7 8 13 21
225 227 225 222 221 221 220 220 222 223 221 220 215 208 208 214 216 222 228 236 279 330 344 353 0 359 357 354 356 6 1 5 15
226 224 228 224 222 222 224 224 224 224 225 221 219 213 217 221 224 231 234 226 246 303 321 334 346 348 347 347 348 350 357 359 2
226 227 226 227 225 224 224 226 228 232 230 227 225 222 220 223 231 242 236 228 245 271 297 306 322 335 339 335 339 338 343 351 355
229 230 232 232 232 231 230 228 231 235 235 231 230 227 227 228 233 245 240 237 250 264 278 292 297 309 326 329 329 325 331 336 345
227 230 233 235 236 236 235 233 235 236 238 234 229 230 229 232 237 242 239 245 253 256 263 274 286 290 304 322 323 317 319 324 332
235 233 232 235 237 240 240 236 235 234 231 231 231 231 233 234 240 245 246 252 255 254 257 267 277 281 286 307 316 311 308 314 319
235 237 236 235 236 238 243 240 234 232 230 228 228 232 232 236 240 244 248 252 252 252 253 261 269 272 280 287 305 306 303 302 308
233 232 235 237 236 237 240 242 240 235 233 230 229 230 232 237 242 245 248 251 252 252 252 258 265 265 270 275 284 297 298 294 292
234 241 242 239 236 236 237 238 238 239 236 233 231 232 233 235 240 245 249 248 250 251 254 257 263 262 264 268 275 286 291 288 285
234 240 244 242 240 240 240 241 239 239 236 235 234 234 236 237 240 244 247 248 249 250 251 258 266 267 262 264 270 277 283 286 282
240 228 232 237 239 239 240 240 244 242 239 234 237 236 239 239 240 243 245 246 246 250 253 258 264 267 263 264 266 271 276 280 280
256 243 234 230 234 237 242 244 240 240 244 243 240 240 238 240 241 243 245 246 248 248 252 257 264 263 263 261 264 267 271 274 276
263 233 218 233 224 228 239 233 237 240 239 242 242 244 241 241 244 244 245 249 251 254 253 257 258 261 261 262 264 265 268 270 274
245 255 253 236 244 230 236 236 237 238 238 239 238 244 246 247 248 249 247 250 252 254 256 256 257 259 259 262 261 266 266 266 269
250 251 254 258 257 262 262 265 259 255 241 242 245 242 250 253 246 249 248 252 255 256 255 257 258 262 258 257 259 264 268 263 263
251 253 254 256 262 267 269 255 253 252 256 242 249 250 253 252 246 248 251 254 253 257 257 257 259 262 260 256 260 262 266 264 262
255 254 256 259 259 263 269 270 256 246 258 257 255 251 252 248 251 253 251 250 255 257 255 253 258 260 265 255 258 262 259 263 260